Regional Weather Roundup
Issued by NWS

Home | Current Version | Previous Version | Graphics & Text | Print | Product List | Glossary On
Versions: 1 2 3 4 5 6 7 8 9 10 11 12 13 14 15 16 17 18 19 20 21 22 23 24 25 26 27 28 29 30 31 32 33 34 35 36 37 38 39 40 41 42 43 44 45 46 47 48 49 50
629
ASUS43 KFSD 161502
RWRSD

WEATHER ROUNDUP FOR SOUTH DAKOTA
NATIONAL WEATHER SERVICE SIOUX FALLS SD
900 AM CST SAT DEC 16 2017

NOTE: "FAIR" INDICATES FEW OR NO CLOUDS BELOW 12,000 FEET WITH NO
SIGNIFICANT WEATHER AND/OR OBSTRUCTIONS TO VISIBILITY.


SDZ001>005-009-010-012>017-161600-
NORTHWEST AND NORTH CENTRAL SOUTH DAKOTA

CITY           SKY/WX    TMP DP  RH WIND       PRES   REMARKS
BUFFALO          N/A     32  27  81 NW12      29.85R WCI  23
FAITH            N/A     33  31  92 NW16      29.87R WCI  23
MOBRIDGE       PTCLDY    36  31  82 NW10      29.84R
$$

SDZ012>016-024>037-041>051-057-063-072>074-161600-
SOUTHWEST AND SOUTH CENTRAL SOUTH DAKOTA

CITY           SKY/WX    TMP DP  RH WIND       PRES   REMARKS
RAPID CTY ARPT CLOUDY    35  27  72 N17       29.89R WCI  25
PIERRE         CLOUDY    36  31  82 NW13      29.86R
CUSTER         CLOUDY    33  21  61 VRB3      29.84R
ELLSWORTH AFB  CLOUDY    35  28  77 N10       29.90R WCI  27
PHILIP         CLOUDY    34  29  82 NW8       29.90R WCI  27
PINE RIDGE     CLOUDY    35  26  69 NE5       29.89R
SPEARFISH      MIX PCPN  32  30  93 NW6       29.90R WCI  26
WINNER         FAIR      34  25  69 NW6       29.86R WCI  29
$$

SDZ004>011-016>023-039-040-161600-
NORTHEAST SOUTH DAKOTA

CITY           SKY/WX    TMP DP  RH WIND       PRES   REMARKS
ABERDEEN       CLOUDY    37  35  92 W7        29.83R
WATERTOWN      CLOUDY    34  32  92 NW8       29.78R WCI  27
BROOKINGS      CLOUDY    30  27  88 NW5       29.79R WCI  25
SISSETON         N/A     34  30  85 NW9       29.79R WCI  27
$$

SDZ017-020-022-023-036>040-048>070-161600-
SOUTHEAST SOUTH DAKOTA

CITY           SKY/WX    TMP DP  RH WIND       PRES   REMARKS
SIOUX FALLS    CLOUDY    33  27  78 N7        29.79R WCI  27
HURON          CLOUDY    34  29  82 NW7       29.83R WCI  28
CHAMBERLAIN    PTCLDY    37  29  72 NW10      29.85R
MITCHELL       PTCLDY    33  26  75 N10       29.83R WCI  25
YANKTON        CLOUDY    35  26  69 NW9       29.81R WCI  28
$$

ABBREVIATIONS USED IN REMARKS
   TC - TEMPERATURE IN CELSIUS
  WCI - WIND CHILL INDEX
   HX - HEAT INDEX
  VSB - VISIBILITY





USA.gov is the U.S. government's official web portal to all federal, state and local government web resources and services.